Время (UTC), дата Ветер
(°,м/с) 
Видим.   Явления Облачность Т
(°С)
Тd
(°С)
f(%) Тe
(°С)
Pmin
(гПа)
dP
(гПа)
Po
(мм)
O2
(г/м3)
Тmin Tmax R s Состояние
почвы
00 01.07.16 210 (ЮЗ) 20000 м  {гроза, ливн. осадки}  10/8 200 м кучево-дожд., средняя 
[Cb calv|Ac und]
+16.5 +15.2 92 +27  1010.9  0.6  719  270           
03 01.07.16 тихо ()   20000 м    8/5 600 м средняя, верхняя 
[Sc diur, vesp|Ac trans|Ci fib]
+17.7 +15.4 86 +28  1009.9  -0.7  719  269  +16.1    12    влажная 
06 01.07.16 110 (В) 20000 м    9/5 600 м средняя 
[Sc|Ac trans]
+21 +17.4 80 +35  1009.5  0.2  719  265           
09 01.07.16 090 (В) 20000 м    8/5 1000 м кучево-дожд., средняя 
[Cb calv|Ac trans]
+24.7 +15.9 58 +36  1009.2  0.2  719  262           
12 01.07.16 340 (С) 20000 м  гроза без осадков  8/8 1000 м кучево-дожд. 
[Cb calv]
+24.7 +16.9 62 +38  1008.8  -0.3  719  262           
15 01.07.16 220 (ЮЗ) 10 км  в посл. час гроза{ливн. осадки}  10/4 200 м кучево-дожд., средняя 
[Cb calv|Ac und]
+19.5 +18.5 94 +38  1010.3  0.6  719  266    +26.1     
18 01.07.16 310 (СЗ) 20000 м  {гроза, ливн. осадки}  9/5 1000 м кучево-дожд., средняя 
[Cb calv|Ac trans]
+19.6 +18.1 91 +37  1011.6  1.2  720  267           
21 01.07.16 210 (ЮЗ) 10 км    9/4 1000 м кучево-дожд., средняя 
[Cb calv|Ac trans]
+18.7 +17.9 95 +35  1011.5  -0.2  720  267           
00 02.07.16 тихо ()   10 км    6/3 1000 м кучево-дожд., средняя 
[Cb calv|Ac trans]
+17.7 +16.7 94 +31  1011.5  -0.3  720  269           
03 02.07.16 тихо ()   10 км    6/3 600 м средняя 
[Sc|Ac trans]
+17.7 +16.7 94 +31  1012.2  0.7  720  269  +16        влажная 
06 02.07.16 090 (В) 20000 м    10/8 300 м средняя 
[St|Ac und]
+21.1 +18.4 85 +38  1012.1  0.5  721  265           
09 02.07.16 140 (ЮВ) 20000 м    10/8 300 м кучево-дожд., средняя, верхняя 
[Cb cap|Ac As|Ci fib]
+22.2 +18.2 78 +38  1011.9  0.5  721  264           
12 02.07.16 070 (В) 20000 м  {ливн. осадки}  9/3 600 м кучево-дожд., средняя 
[Cb calv|Ac trans]
+24.5 +16.8 62 +38  1010.6  -0.8  720  263           
15 02.07.16 070 (В) 20000 м    6/3 1000 м средняя, верхняя 
[Sc diur, vesp|Ac trans|Ci fib]
+24.8 +14.6 53 +34  1010.7  -0.1  720  263    +25     
18 02.07.16 070 (В) 20000 м    8/1 1500 м средняя 
[Sc|Ac trans]
+20.3 +14.9 71 +30  1012.4  0.9  721  267           
21 02.07.16 060 (СВ) 20000 м    6/0 средняя 
[Ac As]
+21.5 +14.3 64 +30  1011.9  -0.3  721  266           
00 03.07.16 090 (В) 20000 м    3/0 средняя 
[Ac trans]
+17.8 +13.7 77 +27  1012.1  -0.4  720  270           
03 03.07.16 050 (СВ) 20000 м    6/0 верхняя 
[Ci fib]
+20.4 +12.7 61 +26  1011.9  0.2  720  268  +17.8        влажная 
06 03.07.16 070 (В) 20000 м    4/0 верхняя 
[Ci fib]
+25 +10.4 40 +28  1011.2  0.1  721  264           
09 03.07.16 070 (В) 20000 м    6/4 600 м верхняя 
[Cu hum|Ci fib]
+26.8 +9.1 33 +28  1010.7  -0.3  720  263           
12 03.07.16 070 (В) 6{10}  20000 м    6/3 600 м верхняя 
[Cu hum|Ci fib]
+27.7 +8.6 30 +28  1009.6  -0.3  720  262           
15 03.07.16 060 (СВ) 20000 м    6/3 1000 м верхняя 
[Cu hum|Ci fib]
+26.6 +8.9 33 +27  1009  -0.7  719  262    +27.8       
18 03.07.16 090 (В) 20000 м    4/0 верхняя 
[Ci fib]
+20.9 +10.3 51 +23  1010.1  0.1  719  267           
21 03.07.16 020 (С) 20000 м    ясно 
+20.3 +10.8 54 +23  1010.4  0.2  719  268           
00 04.07.16 210 (ЮЗ) 20000 м    ясно 
+17.6 +10.3 62 +21  1010.6  -0.3  719  270           
03 04.07.16 150 (ЮВ) 20000 м    5/0 средняя, верхняя 
[Ac trans|Ci]
+19.7 +12.4 63 +26  1010.2  0.1  719  268  +16.6        сухая 
06 04.07.16 100 (В) 20000 м    4/0 средняя 
[Ac trans]
+25.3 +9.4 37 +27  1009.3  719  264           
09 04.07.16 060 (СВ) 20000 м    5/3 600 м верхняя 
[Cu hum|Ci fib]
+27.2 +6.8 27 +27  1008.8  -0.2  719  262           
12 04.07.16 040 (СВ) 20000 м    5/4 600 м верхняя 
[Cu hum|Ci fib]
+28.9 +7.8 27 +29  1008  -0.5  719  261           
15 04.07.16 070 (В) 20000 м    3/3 1000 м 
[Cu hum]
+28.1 +6.2 25 +28  1008  -0.2  719  261    +28.9       
18 04.07.16 310 (СЗ) 20000 м    3/0 средняя 
[Ac trans]
+22.8 +8 39 +23  1009.6  0.6  719  266           
21 04.07.16 310 (СЗ) 20000 м    ясно 
+22 +6.6 37 +22  1009.4  -0.3  719  267           
00 05.07.16 310 (СЗ) 20000 м    ясно 
+21.5 +6.6 38 +22  1009.4  0.1  719  267           
03 05.07.16 310 (СЗ) 20000 м    3/0 средняя 
[Ac trans]
+21.7 +9 44 +22  1009.6  0.3  719  267  +20.2        сухая 
06 05.07.16 220 (ЮЗ) 20000 м    1/1 600 м 
[Cu hum]
+27 +11.7 39 +31  1008.5  0.1  719  261           
09 05.07.16 200 (Ю) 20000 м    6/6 600 м кучево-дожд. 
[Cb calv]
+29.4 +10.7 31 +32  1007.9  -0.2  719  259           
12 05.07.16 140 (ЮВ) 20000 м    6/6 600 м кучево-дожд. 
[Cb calv]
+30.1 +10.2 29 +32  1006.8  -1  718  259           
15 05.07.16 350 (С) 8-12{12}  20000 м    8/6 1000 м кучево-дожд., верхняя 
[Cb calv|Ci fib]
+24.2 +15.2 57 +34  1008.6  0.9  719  263    +30.8       
18 05.07.16 350 (С) 5{12}  20000 м    8/3 1000 м кучево-дожд., средняя 
[Cb calv|Ac trans]
+19.8 +15.5 76 +31  1010.9  1.4  720  267           
21 05.07.16 330 (СЗ) 20000 м    9/3 600 м кучево-дожд., средняя 
[Cb calv|Ac trans]
+19.4 +14.3 72 +29  1011  720  268           
00 06.07.16 280 (З) 20000 м  {ливн. осадки}  10/5 600 м кучево-дожд., средняя 
[Cb calv|Ac und]
+18.3 +15.1 82 +29  1011.5  0.2  720  269           
03 06.07.16 320 (СЗ) 20000 м    3/1 600 м кучево-дожд., средняя 
[Cb calv|Ac trans]
+18 +14.7 81 +28  1011.9  0.3  720  269  +17.1        влажная 
06 06.07.16 080 (В) 20000 м    1/1 600 м 
[Cu hum]
+23.3 +15.5 62 +34  1011.2  0.2  720  264           
09 06.07.16 030 (СВ) 20000 м    4/4 600 м 
[Cu med, cong]
+27.1 +14.1 45 +35  1010.4  -0.2  720  261           
12 06.07.16 030 (СВ) 20000 м    6/6 1000 м 
[Cu med, cong]
+27.1 +14.3 45 +36  1009.9  -0.5  720  261           
15 06.07.16 040 (СВ) 20000 м    8/3 1000 м верхняя 
[Cu med, cong|Ci]
+27.2 +13.3 42 +34  1009.4  -0.5  719  261    +27.9       
18 06.07.16 020 (С) 20000 м    4/1 1000 м верхняя 
[Sc diur, vesp|Ci fib]
+23.6 +13.9 55 +31  1010.4  0.4  720  264           
21 06.07.16 060 (СВ) 20000 м    6/0 средняя 
[Ac trans]
+22 +13.9 60 +30  1010.4  -0.2  720  265           
00 07.07.16 090 (В) 20000 м    3/0 средняя 
[Ac trans]
+19.5 +14.7 74 +29  1010.2  -0.6  719  267           
03 07.07.16 120 (ЮВ) 20000 м    8/3 1000 м средняя 
[Sc|Ac trans]
+20.8 +15 69 +31  1010.4  0.4  719  266  +18.9        сухая 
06 07.07.16 120 (ЮВ) 20000 м    3/0 средняя 
[Ac trans]
+25.4 +15.3 54 +36  1009.9  0.3  720  262           
09 07.07.16 130 (ЮВ) 7-11{12}  20000 м    5/5 600 м 
[Cu hum]
+30 +13.8 37 +38  1008.1  -1  719  258           
12 07.07.16 130 (ЮВ) 6{12}  20000 м    6/6 600 м 
[Cu hum]
+30.7 +11.6 31 +35  1006.6  -1.4  718  258           
15 07.07.16 160 (Ю) 4{10}  20000 м    6/3 600 м верхняя 
[Cu med, cong|Ci]
+29.5 +11.6 33 +34  1006.1  -0.6  717  259    +31.2       
18 07.07.16 230 (ЮЗ) 20000 м    8/3 1000 м кучево-дожд., средняя, верхняя 
[Cb calv|Ac trans|Ci fib]
+23.2 +12.9 52 +30  1007.6  0.4  718  264           
21 07.07.16 320 (СЗ) 20000 м    9/3 600 м кучево-дожд., средняя 
[Cb calv|Ac trans]
+22.1 +16.1 69 +34  1007.9  0.1  718  264           
00 08.07.16 190 (Ю) 20000 м    9/0 средняя 
[Ac trans]
+17.4 +15.2 87 +29  1007.5  -1.2  717  268           
03 08.07.16 300 (СЗ) 5{10}  10 км  гроза, ливневой дождь  10/6 200 м кучево-дожд., средняя 
[Cb cap|Ac und]
+18.5 +17.3 93 +33  1008.3  718  267  +17.1    0.8    влажная 
06 08.07.16 330 (СЗ) 5{11}  10 км  слаб. ливневой дождь{гроза}  10/8 200 м кучево-дожд., средняя 
[Cb cap|Ac und]
+16 +15.2 95 +26  1010.8  719  270  +15.8         
09 08.07.16 270 (З) 20000 м  {ливн. осадки}  10/8 200 м кучево-дожд., средняя 
[Cb calv|Ac und]
+17 +15.8 93 +28  1011.6  0.9  720  270           
12 08.07.16 280 (З) 20000 м  {ливн. осадки}  10/6 600 м кучево-дожд., средняя 
[Cb calv|Ac und]
+20.3 +15.7 75 +31  1011.2  0.1  720  267           
15 08.07.16 290 (З) 5{11}  20000 м    8/3 1000 м кучево-дожд., средняя, верхняя 
[Cb calv|Ac trans|Ci fib]
+21.1 +13.9 63 +29  1011.3  0.3  720  267    +21.8  17     
18 08.07.16 270 (З) 5{10}  20000 м    9/5 1000 м кучево-дожд., средняя 
[Cb calv|Ac trans]
+19 +12.8 67 +25  1014.1  2.3  722  269           
21 08.07.16 280 (З) 20000 м    3/0 средняя 
[Ac trans]
+16.8 +10.9 68 +20  1015.7  723  272           
00 09.07.16 270 (З) 20000 м    ясно 
+15.6 +10.7 73 +18  1016  0.1  723  273           
03 09.07.16 270 (З) 20000 м    ясно 
+16.3 +11.8 75 +20  1016  0.1  723  273  +14        влажная 
06 09.07.16 260 (З) 20000 м    ясно 
+20.2 +12.7 62 +26  1015.7  0.5  723  269           
09 09.07.16 250 (З) 20000 м    4/4 600 м 
[Cu hum]
+22.6 +10.5 46 +25  1015.3  0.1  723  267           
12 09.07.16 240 (ЮЗ) 20000 м    4/4 600 м 
[Cu hum]
+24.2 +9.7 40 +26  1014.2  -0.7  723  266           
15 09.07.16 260 (З) 20000 м    4/3 600 м верхняя 
[Cu hum|Ci fib]
+22.5 +10.2 46 +25  1013.9  -0.6  722  267    +24.5       
18 09.07.16 тихо ()   20000 м    3/0 верхняя 
[Ci fib]
+19.2 +10 55 +21  1014.9  0.4  722  270           
21 09.07.16 тихо ()   20000 м    3/0 верхняя 
[Ci fib]
+17.1 +10 63 +19  1014.8  -0.5  722  272           
00 10.07.16 020 (С) 20000 м    4/0 верхняя 
[Ci fib]
+16.5 +8.9 61 +19  1014.2  -0.7  722  273           
03 10.07.16 тихо ()   20000 м    8/0 средняя, верхняя 
[Ac trans|Ci fib]
+17.5 +11.5 68 +22  1013.8  -0.2  721  271  +15.9        сухая 
06 10.07.16 100 (В) 20000 м    8/0 средняя, верхняя 
[Ac trans|Ci]
+22 +10.5 48 +25  1012.7  -0.2  721  267           
09 10.07.16 090 (В) 20000 м    8/3 600 м верхняя 
[Cu hum|Ci]
+25.5 +9.6 37 +27  1010.9  -1.1  720  264           
12 10.07.16 110 (В) 20000 м    8/4 1000 м кучево-дожд., средняя 
[Cb calv|Ac trans]
+25.3 +10.8 40 +28  1010.1  -0.8  720  263           
15 10.07.16 160 (Ю) 20000 м    10/3 1000 м кучево-дожд., средняя 
[Cb cap|Ac und]
+22 +12.8 56 +28  1010.7  -0.1  720  266    +27.1       
18 10.07.16 310 (СЗ) 20000 м  слаб. ливневой дождь  10/5 300 м кучево-дожд., средняя 
[Cb cap|Ac und]
+16.5 +13.6 83 +24  1013.3  1.5  721  271           
21 10.07.16 340 (С) 20000 м  слаб. ливневой дождь  10/4 600 м кучево-дожд., средняя 
[Cb cap|Ac und]
+15.6 +14.6 94 +25  1013.6  0.1  721  272           
00 11.07.16 350 (С) 10 км  в посл. час ливневой дождь  10/5 100 м кучево-дожд., средняя 
[Cb cap|Ac und]
+15.3 +14.4 94 +25  1013.2  -0.4  721  272           
03 11.07.16 250 (З) 20000 м  в посл. час ливневой дождь  10/5 600 м кучево-дожд., средняя 
[Cb cap|Ac und]
+15.4 +14.5 94 +26  1014  0.8  721  272  +15.1    10    влажная 
06 11.07.16 080 (В) 20000 м  {ливн. осадки}  10/5 600 м кучево-дожд., средняя 
[Cb calv|Ac und]
+17 +14.5 85 +27  1014.7  0.9  722  271           
09 11.07.16 110 (В) 20000 м  в посл. час ливневой дождь  10/6 300 м кучево-дожд., средняя 
[Cb calv|Ac und]
+17.7 +14.8 83 +27  1015.1  0.5  722  270           
12 11.07.16 170 (Ю) 20000 м  {ливн. осадки}  9/4 600 м кучево-дожд., средняя 
[Cb calv|Ac trans]
+19 +13.3 69 +27  1014.8  0.1  722  269           
15 11.07.16 150 (ЮВ) 20000 м    8/3 600 м средняя 
[Sc diur, vesp|Ac trans]
+19 +13.3 69 +28  1015.8  723  270    +19.8  0.3     
18 11.07.16 060 (СВ) 20000 м    6/0 средняя 
[Ac trans]
+16.3 +12.6 79 +23  1018.1  1.7  724  273           
21 11.07.16 210 (ЮЗ) 20000 м    6/0 средняя 
[Ac trans]
+15.4 +12.6 83 +22  1017.5  -0.8  724  274           
00 12.07.16 тихо ()   20000 м    3/0 средняя 
[Ac trans]
+16.1 +11.1 72 +19  1018  0.6  724  273           
03 12.07.16 тихо ()   20000 м    3/0 верхняя 
[Ci fib]
+17.8 +12.4 71 +23  1018.9  1.2  725  272  +13.9        влажная 
06 12.07.16 070 (В) 20000 м    1/0 верхняя 
[Ci fib]
+22.6 +12.7 54 +28  1018.5  0.4  725  267           
09 12.07.16 130 (ЮВ) 20000 м    3/3 600 м 
[Cu hum]
+25 +11.5 43 +29  1018.2  0.1  725  266           
12 12.07.16 090 (В) 20000 м    4/3 1000 м верхняя 
[Cu hum|Ci fib]
+25.8 +9.5 36 +27  1017.4  -0.6  725  265           
15 12.07.16 050 (СВ) 20000 м    3/1 1000 м верхняя 
[Cu hum|Ci fib]
+26.4 +10.5 37 +29  1017.2  0.1  725  264    +27.2       
18 12.07.16 040 (СВ) 20000 м    4/0 верхняя 
[Ci fib]
+21.7 +10.4 49 +24  1018.8  0.8  726  269           
21 12.07.16 160 (Ю) 20000 м    3/0 верхняя 
[Ci fib]
+19.5 +10.6 56 +24  1018.9  -0.3  725  271           
00 13.07.16 040 (СВ) 20000 м    3/0 верхняя 
[Ci fib]
+18.1 +10 59 +21  1019  -0.2  725  272           
03 13.07.16 150 (ЮВ) 20000 м    1/0 верхняя 
[Ci fib]
+19.3 +13 67 +27  1018.8  725  270  +15        влажная 
06 13.07.16 100 (В) 20000 м    ясно 
+24.5 +12 46 +29  1018.1  0.3  725  266           
09 13.07.16 100 (В) 7-10{11}  20000 м    3/0 верхняя 
[Ci fib]
+27.9 +10.3 33 +30  1016.4  -1.2  725  263           
12 13.07.16 100 (В) 8-11{12}  20000 м    ясно 
+29.1 +9.6 30 +30  1014.7  -1.4  724  262           
15 13.07.16 110 (В) 6{12}  20000 м    ясно 
+28.3 +9.3 30 +29  1013.9  -0.9  723  262    +29.3       
18 13.07.16 100 (В) 20000 м    ясно 
+21.3 +11.3 53 +25  1014.8  -0.2  723  268           
21 13.07.16 120 (ЮВ) 20000 м    ясно 
+19.4 +11.4 60 +24  1014.5  -0.6  722  270           
00 14.07.16 110 (В) 20000 м    ясно 
+17 +10.6 66 +20  1013.8  -1.1  721  272           
03 14.07.16 090 (В) 20000 м    ясно 
+18.8 +10.9 60 +22  1013.3  -0.2  721  270  +15.6        сухая 
06 14.07.16 100 (В) 9-12{12}  20000 м    ясно 
+25.5 +8.8 35 +26  1012.1  0.1  721  264           
09 14.07.16 100 (В) 11-15{16}  20000 м    ясно 
+29.8 +8.6 27 +30  1010.3  -1  720  260           
12 14.07.16 110 (В) 9-13{15}  20000 м    ясно 
+31.2 +8.4 24 +31  1008.6  -1.4  719  259           
15 14.07.16 100 (В) 6{14}  20000 м    ясно 
+29.2 +8.4 27 +29  1008.1  -0.8  719  260    +31.2       
18 14.07.16 090 (В) 20000 м    3/0 верхняя 
[Ci fib]
+23.5 +8.8 39 +24  1009.7  0.6  719  265           
21 14.07.16 100 (В) 20000 м    ясно 
+19 +10.6 58 +22  1010.1  -0.4  719  269           
00 15.07.16 100 (В) 20000 м    ясно 
+15.9 +11.4 75 +20  1010  -0.6  719  271           
03 15.07.16 080 (В) 20000 м    ясно 
+17.3 +13.4 78 +25  1009.8  0.1  719  270  +15.2        сухая 
06 15.07.16 090 (В) 20000 м    3/0 верхняя 
[Ci fib]
+21.9 +15.5 67 +33  1009.6  0.6  719  265           
09 15.07.16 110 (В) 20000 м    4/4 600 м 
[Cu hum]
+25.6 +16.6 58 +38  1009.4  0.4  719  261           
12 15.07.16 110 (В) 20000 м    4/4 600 м 
[Cu hum]
+28.9 +16.3 47 +41  1008.4  -0.4  719  259           
15 15.07.16 200 (Ю) 20000 м    ясно 
+29 +16.3 46 +41  1008.5  0.1  719  258    +29.9       
18 15.07.16 270 (З) 20000 м    ясно 
+24.4 +15.9 59 +36  1010.2  0.9  720  263           
21 15.07.16 330 (СЗ) 20000 м    ясно 
+22.3 +15.8 67 +34  1010.5  0.1  720  265           
00 16.07.16 040 (СВ) 20000 м    ясно 
+20.9 +15.4 71 +31  1010.5  -0.2  720  266           
03 16.07.16 240 (ЮЗ) 20000 м    3/0 средняя 
[Ac trans]
+20 +15.7 76 +31  1011.6  0.9  720  267  +17.7        сухая 
06 16.07.16 070 (В) 20000 м    3/0 средняя 
[Ac trans]
+27.8 +17.7 54 +43  1010.8  0.6  721  260           
09 16.07.16 100 (В) 5{10}  20000 м    1/0 средняя 
[Ac trans]
+30.4 +17.4 46 +45  1010.6  0.2  721  257           
12 16.07.16 120 (ЮВ) 5{13}  20000 м    ясно 
+32.5 +16.2 38 +45  1010  -0.3  721  256           
15 16.07.16 100 (В) 20000 м    ясно 
+31.8 +17.2 42 +46  1010.1  721  256    +32.8       
18 16.07.16 100 (В) 20000 м    ясно 
+24.7 +15 55 +34  1012.5  1.1  721  263           
21 16.07.16 090 (В) 20000 м    ясно 
+22 +13.1 57 +28  1013.1  0.2  722  266           
00 17.07.16 110 (В) 20000 м    ясно 
+21.7 +13.5 60 +29  1012.5  -0.7  721  266           
03 17.07.16 070 (В) 20000 м    ясно 
+22.3 +15.8 67 +34  1012.7  0.3  721  265  +21        сухая 
06 17.07.16 100 (В) 7-10{10}  20000 м    ясно 
+28.9 +15.4 44 +39  1011.5  0.1  721  260           
09 17.07.16 110 (В) 10-16{16}  20000 м    ясно 
+33.4 +10.4 25 +36  1009.9  -0.9  721  257           
12 17.07.16 110 (В) 9-13{16}  20000 м    ясно 
+35.3 +10.6 22 +38  1008  -1.5  719  255           
15 17.07.16 110 (В) 8-12{15}  20000 м    ясно 
+33.5 +9.6 23 +35  1007  -1.2  719  256    +35.3       
18 17.07.16 100 (В) 6{12}  20000 м    ясно 
+27.6 +10.7 35 +31  1008.1  0.1  719  261           
21 17.07.16 100 (В) 20000 м    ясно 
+24.1 +13.3 51 +31  1008.2  -0.4  718  263           
00 18.07.16 100 (В) 20000 м    ясно 
+21.7 +14.4 63 +31  1007.7  -0.9  718  265           
03 18.07.16 100 (В) 20000 м    ясно 
+22.7 +13.8 57 +30  1007.5  0.1  718  264  +20.4        сухая 
06 18.07.16 120 (ЮВ) 10-15{15}  20000 м    ясно 
+28.7 +12.1 36 +34  1005.4  -1  717  259           
09 18.07.16 120 (ЮВ) 8-12{17}  20000 м    ясно 
+32.9 +12.8 30 +39  1003.4  -1.3  716  255           
12 18.07.16 110 (В) 6-10{13}  20000 м    3/0 верхняя 
[Cc]
+34.7 +13.1 27 +41  1002  -1  715  253           
15 18.07.16 160 (Ю) 3{10}  20000 м    6/0 средняя, верхняя 
[Ac As|Cc]
+32.9 +14.9 34 +43  1001.4  -0.8  715  254    +35       
18 18.07.16 100 (В) 20000 м    9/0 средняя 
[Ac trans]
+28.3 +14.6 43 +38  1002.2  715  258           
21 18.07.16 130 (ЮВ) 20000 м    6/0 средняя 
[Ac trans]
+25.4 +13.9 49 +33  1002.7  715  261           
00 19.07.16 300 (СЗ) 20000 м    8/3 1000 м кучево-дожд., средняя 
[Cb cap|Ac As]
+23.9 +19.5 76 +43  1002.7  -0.1  714  260           
03 19.07.16 280 (З) 20000 м    8/3 1000 м кучево-дожд., средняя 
[Cb cap|Ac As]
+22.8 +18.2 75 +39  1003.2  0.2  715  261  +22        сухая 
06 19.07.16 140 (ЮВ) 4000 м  гроза, ливневой дождь  10/6 200 м кучево-дожд., средняя 
[Cb cap|Ac und]
+20.2 +18.8 92 +38  1006.1  2.4  716  264  +20.2         
09 19.07.16 310 (СЗ) 4{14}  10 км  гроза, ливневой дождь  10/6 200 м кучево-дожд., средняя 
[Cb cap|Ac und]
+19.3 +15.5 79 +31  1005.8  -0.5  716  266           
12 19.07.16 190 (Ю) 20000 м  {гроза, ливн. осадки}  8/5 600 м кучево-дожд., средняя 
[Cb calv|Ac trans]
+24.3 +15.8 59 +36  1003  -1.8  715  261           
15 19.07.16 300 (СЗ) 20000 м  {ливн. осадки}  8/4 600 м кучево-дожд., средняя 
[Cb calv|Ac trans]
+24.7 +19.1 71 +43  1005.1  2.1  716  260    +27  16     
18 19.07.16 250 (З) 6{10}  20000 м  {ливн. осадки}  5/3 600 м кучево-дожд., средняя 
[Cb calv|Ac trans]
+22.3 +16.3 69 +35  1005.8  0.2  716  263           
21 19.07.16 280 (З) 8-13{14}  20000 м    3/0 средняя 
[Ac trans]
+20.7 +13.7 64 +28  1006.3  -0.1  716  266           
00 20.07.16 270 (З) 3{14}  20000 м    3/0 средняя 
[Ac trans]
+18.7 +14.6 77 +28  1007.7  717  267           
03 20.07.16 250 (З) 20000 м    ясно 
+19.2 +15.1 77 +30  1008.7  718  267  +18.1        влажная 
06 20.07.16 250 (З) 6{10}  20000 м    4/4 300 м 
[St]
+22.7 +16 66 +34  1008.9  0.8  719  264           
09 20.07.16 270 (З) 6{11}  20000 м    6/6 600 м 
[Cu hum]
+25.3 +16.5 58 +38  1008.4  0.1  719  261           
12 20.07.16 270 (З) 6{11}  20000 м    8/5 1000 м кучево-дожд., средняя 
[Cb calv|Ac trans]
+24.6 +15.1 55 +35  1009.1  0.6  719  263           
15 20.07.16 240 (ЮЗ) 20000 м    8/5 1000 м кучево-дожд., средняя 
[Cb calv|Ac trans]
+22.8 +16.6 68 +36  1010.1  0.7  720  264    +26.1       
18 20.07.16 260 (З) 20000 м    10/4 1000 м кучево-дожд., средняя 
[Cb calv|Ac und]
+21.5 +14.8 66 +31  1010.9  0.4  720  266           
21 20.07.16 300 (СЗ) 20000 м    9/4 1000 м кучево-дожд., средняя 
[Cb calv|Ac trans]
+21 +15.4 70 +32  1011  720  266           
00 21.07.16 340 (С) 20000 м    8/3 1000 м кучево-дожд., средняя 
[Cb calv|Ac trans]
+19.8 +14.2 70 +29  1011  0.1  720  267           
03 21.07.16 070 (В) 20000 м    10/5 1000 м кучево-дожд., средняя 
[Cb calv|Ac und]
+19.3 +14.2 72 +28  1010.9  -0.2  720  268  +18.7        сухая 
06 21.07.16 070 (В) 10 км  слаб. ливневой дождь  10/8 1000 м кучево-дожд., средняя 
[Cb cap|Ac und]
+19.7 +15.7 78 +32  1011.1  0.3  720  267           
09 21.07.16 030 (СВ) 10 км  слаб. ливневой дождь  10/8 300 м кучево-дожд., средняя 
[Cb cap|Ac und]
+18.7 +17.6 93 +34  1011.1  -0.1  720  267           
12 21.07.16 320 (СЗ) 10 км  слаб. ливневой дождь  10/8 200 м кучево-дожд., средняя 
[Cb cap|Ac und]
+18.8 +17.5 92 +34  1011.7  0.6  720  267           
15 21.07.16 350 (С) 0900 м  слаб. ливневой дождь{гроза, туман}  ?/?  
+16.7 +16 96 +29  1012.5  0.2  720  270    +21.5  33     
18 21.07.16 170 (Ю) 4000 м  дымка{гроза, ливн. осадки}  10/6 100 м кучево-дожд., средняя 
[Cb calv|Ac und]
+16.5 +15.9 96 +28  1014.2  1.6  722  271           
21 21.07.16 250 (З) 10 км    8/4 600 м кучево-дожд., средняя 
[Cb calv|Ac trans]
+15.3 +14.7 96 +25  1014.1  -0.3  721  272           
00 22.07.16 240 (ЮЗ) 20000 м    5/0 средняя 
[Ac trans]
+14 +13.4 96 +21  1014  -0.4  721  274           
03 22.07.16 250 (З) 20000 м    8/1 600 м кучево-дожд., средняя 
[Cb calv|Ac trans]
+17.7 +15.8 89 +29  1013.7  0.4  721  270  +13.6    0.3    влажная 
06 22.07.16 270 (З) 20000 м    8/3 300 м средняя 
[Sc|Ac trans]
+20.4 +16.5 78 +33  1013.5  0.3  722  267           
09 22.07.16 260 (З) 20000 м    4/4 600 м 
[Cu med, cong]
+23.8 +14.9 57 +33  1012.9  722  264           
12 22.07.16 240 (ЮЗ) 20000 м    4/4 600 м 
+25.1 +12.7 46 +31  1012.5  0.1  722  264           
15 22.07.16 270 (З) 20000 м    1/1 1000 м 
[Cu hum]
+24.4 +11.1 43 +28  1012.6  0.1  721  265    +25.5  0.3     
18 22.07.16 270 (З) 20000 м    3/0 средняя 
[Ac trans]
+19.2 +11.7 62 +24  1014.2  0.6  722  269           
21 22.07.16 290 (З) 20000 м    3/1 1500 м средняя 
[Sc|Ac trans]
+19.2 +12.5 65 +26  1013.7  -0.4  722  269           
00 23.07.16 260 (З) 20000 м    3/0 средняя 
[Ac trans]
+17.2 +11.9 71 +22  1013.9  -0.2  721  271           
03 23.07.16 240 (ЮЗ) 20000 м    3/1 1000 м средняя 
[Sc|Ac cast]
+17.3 +13.7 79 +26  1013.2  -0.6  721  270  +15.7        влажная 
06 23.07.16 240 (ЮЗ) 20000 м    1/0 средняя 
[Ac trans]
+22.1 +13.8 59 +30  1011.8  -0.5  721  266           
09 23.07.16 250 (З) 6-10{11}  20000 м    5/3 600 м кучево-дожд., средняя 
[Cb calv|Ac trans]
+24.7 +13 48 +31  1010.5  -0.8  720  263           
12 23.07.16 300 (СЗ) 7-13{13}  20000 м    6/4 600 м кучево-дожд., средняя 
[Cb calv|Ac trans]
+23.1 +14.3 58 +32  1010.7  0.1  720  265           
15 23.07.16 270 (З) 6-10{12}  20000 м    8/4 600 м кучево-дожд., средняя 
[Cb calv|Ac trans]
+22 +14.3 62 +31  1010.6  -0.3  720  265    +25.4       
18 23.07.16 280 (З) 5{12}  20000 м    6/0 средняя 
[Ac trans]
+19 +14.9 77 +29  1011.4  0.3  720  268           
21 23.07.16 250 (З) 20000 м    3/0 средняя 
[Ac trans]
+17.1 +13.3 78 +24  1011  -0.7  719  270           
00 24.07.16 260 (З) 20000 м    3/0 средняя 
[Ac trans]
+16.9 +13.3 79 +24  1010.6  -0.4  719  270           
03 24.07.16 250 (З) 20000 м    ясно 
+17.1 +13.3 78 +24  1010.1  -0.5  719  270  +15.9        сухая 
06 24.07.16 250 (З) 7-10{10}  20000 м    3/3 600 м верхняя 
[Cu hum|Ci fib]
+21.3 +13.7 62 +29  1008.5  -0.7  718  266           
09 24.07.16 240 (ЮЗ) 9-13{13}  20000 м    8/5 600 м кучево-дожд., средняя 
[Cb calv|Ac trans]
+21.7 +13.1 58 +28  1007.2  -1.3  717  265           
12 24.07.16 270 (З) 10-13{15}  20000 м  слаб. ливневой дождь  10/8 600 м кучево-дожд., средняя 
[Cb cap|Ac und]
+19.3 +14.1 72 +27  1007.8  0.2  717  267           
15 24.07.16 240 (ЮЗ) 6-10{16}  20000 м  слаб. ливневой дождь  9/8 600 м кучево-дожд., средняя 
[Cb cap|Ac trans]
+17.5 +15 85 +27  1008.5  0.4  718  269    +24.7     
18 24.07.16 260 (З) 7-10{12}  20000 м  {ливн. осадки}  4/3 600 м кучево-дожд., средняя 
[Cb calv|Ac trans]
+17 +13 77 +23  1009  0.3  718  270           
21 24.07.16 240 (ЮЗ) 4{12}  20000 м  гроза без осадков{ливн. осадки}  8/5 600 м кучево-дожд., средняя 
[Cb calv|Ac trans]
+16 +14.4 90 +25  1009.3  0.2  718  270           
00 25.07.16 270 (З) 20000 м  слаб. ливневой дождь, в посл. час гроза  10/6 300 м кучево-дожд., средняя 
[Cb cap|Ac und]
+16.7 +14.9 89 +26  1008.6  -0.5  718  269           
03 25.07.16 270 (З) 6-10{10}  20000 м  {ливн. осадки}  8/5 300 м кучево-дожд., средняя 
[Cb calv|Ac trans]
+16.2 +14.6 90 +25  1008.8  -0.1  718  270  +16      влажная 
06 25.07.16 270 (З) 6{10}  20000 м  {ливн. осадки}  9/5 300 м кучево-дожд., средняя 
[Cb calv|Ac trans]
+18 +15.2 84 +28  1009.3  0.9  718  268           
09 25.07.16 300 (СЗ) 7-11{12}  20000 м    8/6 600 м кучево-дожд., средняя 
[Cb calv|Ac trans]
+21.3 +14.1 64 +30  1009.4  0.6  719  266           
12 25.07.16 280 (З) 6{12}  20000 м    6/6 600 м кучево-дожд. 
[Cb calv]
+22.4 +13.5 57 +30  1009.6  0.4  719  265           
15 25.07.16 320 (СЗ) 6{10}  20000 м    8/6 600 м кучево-дожд., средняя 
[Cb calv|Ac trans]
+21.7 +13.3 59 +29  1010.7  0.9  720  266    +23.2       
18 25.07.16 300 (СЗ) 20000 м    8/3 1000 м кучево-дожд., средняя 
[Cb calv|Ac trans]
+19.2 +14.6 75 +29  1012.7  1.5  721  268           
21 25.07.16 290 (З) 20000 м    4/3 600 м кучево-дожд., средняя 
[Cb calv|Ac trans]
+18.2 +14.5 79 +28  1013  0.1  721  269           
00 26.07.16 300 (СЗ) 20000 м    3/0 средняя 
[Ac trans]
+16.9 +14.5 86 +26  1013.3  721  271           
03 26.07.16 290 (З) 20000 м    ясно 
+18.1 +13.8 76 +27  1013.6  0.5  721  270  +16.7        влажная 
06 26.07.16 300 (СЗ) 20000 м    3/3 600 м 
[Cu hum]
+22.5 +14.2 59 +31  1013.4  0.6  722  266           
09 26.07.16 300 (СЗ) 20000 м    4/4 1000 м 
[Cu med, cong]
+24.3 +12.9 49 +30  1012.7  -0.4  722  264           
12 26.07.16 350 (С) 20000 м    3/3 600 м 
[Cu med, cong]
+26.6 +12.9 43 +33  1011.9  -0.4  721  262           
15 26.07.16 010 (С) 20000 м    1/1 1000 м 
[Cu hum]
+25.5 +12.3 44 +31  1012  0.1  721  263    +26.6       
18 26.07.16 360 (С) 20000 м    1/0 средняя 
[Ac trans]
+21.6 +14 62 +30  1013.5  0.9  722  267           
21 26.07.16 080 (В) 20000 м    ясно 
+19.6 +12.8 65 +27  1013.6  -0.3  722  269           
00 27.07.16 140 (ЮВ) 20000 м    ясно 
+16.9 +12.7 76 +24  1013.9  -0.2  721  271           
03 27.07.16 тихо ()   20000 м    ясно 
+17.1 +13.6 80 +24  1014.2  0.4  722  271  +15.8        сухая 
06 27.07.16 070 (В) 20000 м    ясно 
+23.8 +14 54 +32  1013.2  0.1  722  265           
09 27.07.16 010 (С) 20000 м    6/6 600 м кучево-дожд. 
[Cb calv]
+25.4 +14.8 52 +35  1012.7  -0.2  722  263           
12 27.07.16 050 (СВ) 20000 м    6/4 600 м кучево-дожд., средняя 
[Cb calv|Ac trans]
+26.7 +13.3 44 +34  1012.1  -0.4  721  262           
15 27.07.16 060 (СВ) 20000 м    ясно 
+25.8 +12.8 44 +32  1011.8  -0.4  721  263    +27.3       
18 27.07.16 040 (СВ) 20000 м    ясно 
+22.3 +13.9 59 +30  1013.3  0.8  722  266           
21 27.07.16 050 (СВ) 20000 м    ясно 
+19.6 +14.5 72 +29  1013.5  -0.2  722  268           
00 28.07.16 050 (СВ) 20000 м    ясно 
+18.7 +14.1 75 +28  1013.4  -0.3  721  269           
03 28.07.16 070 (В) 20000 м    ясно 
+18.4 +14.6 79 +28  1013.6  0.2  721  269  +16.1        сухая 
06 28.07.16 090 (В) 10 км    ясно 
+22.6 +16.5 68 +35  1013.5  0.7  722  265           
09 28.07.16 080 (В) 20000 м    6/4 600 м кучево-дожд., средняя 
[Cb calv|Ac trans]
+26.5 +15.9 52 +38  1012.7  -0.2  722  262           
12 28.07.16 080 (В) 7-11{11}  20000 м    6/3 1000 м средняя 
[Cu hum|Ac trans]
+27.8 +13.6 42 +35  1012  -0.5  721  261           
15 28.07.16 100 (В) 4{11}  10 км    4/1 1000 м средняя 
[Cu hum|Ac trans]
+26.5 +12.8 43 +33  1012.1  -0.1  721  262    +28.2       
18 28.07.16 120 (ЮВ) 10 км    4/0 средняя 
[Ac trans]
+21.7 +12.6 56 +27  1013.5  0.6  722  267           
21 28.07.16 020 (С) 10 км    ясно 
+19.2 +14.4 74 +29  1014.1  0.2  722  269           
00 29.07.16 110 (В) 10 км    ясно 
+17.1 +13.1 77 +24  1014.4  -0.2  722  271           
03 29.07.16 140 (ЮВ) 10 км    ясно 
+19.2 +13.9 71 +28  1014.6  0.7  722  269  +17.1        сухая 
06 29.07.16 120 (ЮВ) 10 км    ясно 
+23.5 +15.1 59 +33  1014.2  0.3  722  265           
09 29.07.16 100 (В) 6-11{11}  20000 м    4/3 600 м верхняя 
[Cu hum|Ci fib]
+27.1 +9.7 34 +29  1012.8  -0.9  722  263           
12 29.07.16 110 (В) 6-10{11}  20000 м    ясно 
+28.2 +5.2 23 +28  1011.6  -0.9  721  263           
15 29.07.16 100 (В) 4{10}  20000 м    ясно 
+26.9 +6.1 27 +27  1011.2  -0.5  721  263    +28.5       
18 29.07.16 130 (ЮВ) 20000 м    ясно 
+20.8 +6.6 40 +21  1012.4  0.2  721  269           
21 29.07.16 140 (ЮВ) 20000 м    ясно 
+19.5 +7.1 44 +20  1012.4  -0.3  721  270           
00 30.07.16 080 (В) 20000 м    ясно 
+16.9 +8.1 56 +18  1012  -0.8  720  272           
03 30.07.16 040 (СВ) 20000 м    ясно 
+17.9 +9.6 58 +20  1011.9  0.1  720  271  +15.4        сухая 
06 30.07.16 090 (В) 20000 м    ясно 
+25 +11.6 43 +29  1010.8  0.1  720  264           
09 30.07.16 070 (В) 7-10{12}  20000 м    ясно 
+27.9 +8.4 29 +28  1009.9  -0.5  720  262           
12 30.07.16 080 (В) 5{12}  20000 м    1/0 средняя 
[Ac trans]
+29.1 +3.8 20 +29  1008.8  -0.9  719  261           
15 30.07.16 070 (В) 2{11}  20000 м    3/0 верхняя 
[Ci fib]
+27.9 +4.9 23 +28  1008.5  -0.4  719  262    +29.3       
18 30.07.16 030 (СВ) 20000 м    4/0 верхняя 
[Ci fib]
+22.8 +2.8 27 +23  1010.6  1.2  720  267           
21 30.07.16 360 (С) 20000 м    ясно 
+19.3 +5.6 41 +20  1011.3  720  270           
00 31.07.16 120 (ЮВ) 20000 м    ясно 
+18.7 +6.1 44 +19  1011.7  0.4  720  270           
03 31.07.16 210 (ЮЗ) 20000 м    3/0 верхняя 
[Ci fib]
+19 +10.3 57 +22  1012.2  0.4  720  269  +14.4        сухая 
06 31.07.16 120 (ЮВ) 20000 м    ясно 
+27.2 +10.9 36 +30  1011.5  0.7  721  262           
09 31.07.16 120 (ЮВ) 20000 м    3/3 600 м 
[Cu hum]
+29.4 +8.6 27 +30  1011.7  0.5  721  261           
12 31.07.16 020 (С) 20000 м    3/3 600 м 
[Cu hum]
+30 +7.9 25 +30  1011.2  -0.4  721  260           
15 31.07.16 090 (В) 20000 м    ясно 
+27.9 +10.1 33 +30  1011.3  -0.2  721  262    +30.5       
18 31.07.16 040 (СВ) 20000 м    3/0 средняя 
[Ac trans]
+25 +8.1 34 +25  1012.9  722  265           
21 31.07.16 280 (З) 20000 м    ясно 
+21.8 +9.7 46 +23  1013.6  0.2  722  268           
00 01.08.16 230 (ЮЗ) 20000 м    ясно 
+19.5 +9 51 +22  1013.7  -0.3  722  270           
03 01.08.16 030 (СВ) 20000 м    ясно 
+21.9 +7.9 41 +22  1013.9  0.5  722  268  +17.5        сухая 
Время (UTC), дата Ветер
(°,м/с) 
Видим.   Явления Облачность Т
(°С)
Тd
(°С)
f(%) Тe
(°С)
Pmin
(гПа)
dP
(гПа)
Po
(мм)
O2
(г/м3)
Тmin Tmax R s Состояние
почвы